Total_Precipitation_Accumulation
1.48 1.40 1.40 1.38 1.35 1.36 1.43 1.61 1.92 1.77 1.20 0.91 0.94 0.99 1.07 1.17 1.20 1.11 1.07 1.28 1.38 1.44 1.53 1.60 1.71 1.88 2.22 2.77 3.42 4.36 5.01 4.72 3.91 3.33 3.28 3.66 4.16 4.64
1.59 1.57 1.44 1.36 1.39 1.44 1.51 1.54 1.64 1.80 1.49 0.91 0.82 0.90 1.05 1.24 1.34 1.13 1.09 1.29 1.34 1.41 1.42 1.43 1.58 1.75 1.98 2.27 2.66 3.26 4.20 4.73 4.55 4.03 3.64 3.77 4.07 4.50
1.58 1.61 1.50 1.40 1.51 1.56 1.63 1.66 1.60 1.65 1.69 1.11 0.88 0.95 1.19 1.34 1.40 1.26 1.21 1.20 1.22 1.35 1.41 1.42 1.46 1.67 1.85 2.02 2.22 2.59 3.27 4.04 4.53 4.59 4.30 4.06 4.09 4.18
1.57 1.60 1.58 1.50 1.52 1.55 1.66 1.66 1.58 1.51 1.61 1.42 1.12 1.11 1.25 1.40 1.44 1.40 1.36 1.30 1.18 1.28 1.36 1.46 1.46 1.59 1.79 1.89 2.00 2.22 2.60 3.14 3.74 4.25 4.43 4.14 4.01 4.05
1.53 1.58 1.62 1.61 1.54 1.48 1.57 1.62 1.54 1.50 1.55 1.57 1.33 1.19 1.29 1.45 1.61 1.64 1.58 1.54 1.38 1.34 1.36 1.45 1.55 1.57 1.69 1.82 1.94 2.06 2.20 2.38 2.80 3.48 4.11 4.20 4.00 4.01
1.44 1.45 1.53 1.67 1.69 1.67 1.68 1.63 1.65 1.73 1.72 1.72 1.55 1.38 1.41 1.54 1.72 1.82 1.85 1.78 1.67 1.49 1.50 1.56 1.64 1.68 1.66 1.68 1.69 1.75 1.89 2.20 2.56 3.04 3.52 3.92 3.98 3.96
1.39 1.31 1.40 1.68 1.90 2.07 2.11 1.93 1.94 2.12 2.08 2.04 1.89 1.68 1.55 1.62 1.77 1.77 1.88 1.83 1.82 1.69 1.59 1.59 1.58 1.56 1.56 1.58 1.61 1.63 1.71 1.92 2.22 2.55 2.96 3.34 3.66 3.87
1.45 1.31 1.33 1.62 1.81 1.99 2.16 2.11 2.11 2.30 2.41 2.34 2.16 1.87 1.53 1.42 1.52 1.77 2.02 2.23 2.22 1.90 1.72 1.74 1.58 1.63 1.58 1.47 1.62 1.69 1.71 1.86 2.07 2.28 2.54 2.84 3.17 3.57
1.37 1.33 1.37 1.46 1.63 1.66 1.83 1.91 1.88 2.03 2.27 2.37 2.34 1.88 1.63 1.53 1.79 2.08 2.13 2.24 2.14 2.03 2.04 2.14 1.81 1.73 1.63 1.63 1.75 1.70 1.76 1.83 1.96 2.10 2.30 2.50 2.75 3.11
1.45 1.35 1.29 1.33 1.47 1.66 1.77 1.77 1.66 1.69 1.90 2.07 2.27 2.06 1.85 1.89 2.24 2.57 2.69 2.68 2.38 2.21 2.17 2.45 2.07 1.84 1.73 1.70 1.78 1.67 1.67 1.75 1.85 1.94 2.09 2.29 2.48 2.74
1.52 1.43 1.29 1.23 1.48 1.70 1.66 1.62 1.53 1.54 1.67 1.89 2.06 2.13 2.16 2.31 2.64 3.11 3.31 3.32 3.01 2.59 2.32 2.41 2.28 2.10 2.09 2.08 2.01 1.89 1.69 1.64 1.71 1.81 1.91 2.04 2.24 2.56
1.54 1.47 1.53 1.49 1.62 1.65 1.53 1.60 1.71 1.56 1.46 1.51 1.58 1.63 1.67 1.82 2.29 2.76 3.18 3.37 3.13 3.00 2.55 2.38 2.36 2.41 2.88 2.65 2.25 1.92 1.74 1.70 1.66 1.68 1.71 1.77 1.95 2.06
1.56 1.54 1.47 1.66 1.68 1.64 1.60 1.56 1.74 1.64 1.51 1.56 1.55 1.48 1.47 1.58 1.78 2.13 2.69 3.19 3.26 3.00 2.58 2.67 2.80 2.47 2.71 2.81 2.50 2.09 1.73 1.62 1.55 1.60 1.63 1.66 1.70 1.73
1.55 1.44 1.41 1.61 1.65 1.68 1.63 1.67 1.73 1.69 1.57 1.59 1.52 1.43 1.43 1.54 1.69 1.90 2.20 2.55 2.76 2.72 2.48 2.70 3.16 2.78 2.53 2.40 2.37 2.27 1.91 1.69 1.52 1.48 1.49 1.73 1.79 1.80
1.70 1.72 1.65 1.73 1.74 1.62 1.59 1.63 1.57 1.46 1.53 1.60 1.50 1.33 1.28 1.40 1.52 1.66 1.78 2.00 2.22 2.32 2.38 2.51 2.81 2.82 2.69 2.49 2.11 1.97 1.98 1.99 1.71 1.54 1.50 1.54 1.58 1.62
1.84 1.81 1.79 1.81 1.77 1.68 1.60 1.47 1.35 1.36 1.46 1.48 1.40 1.28 1.19 1.26 1.40 1.52 1.66 1.78 2.08 2.26 2.32 2.44 2.71 3.00 2.98 2.35 2.06 1.88 1.71 2.02 1.96 1.68 1.58 1.56 1.50 1.41
1.90 1.94 1.87 1.82 1.81 1.67 1.47 1.31 1.25 1.33 1.38 1.30 1.31 1.32 1.29 1.28 1.30 1.35 1.56 1.70 1.95 2.09 2.27 2.51 2.75 2.90 3.00 2.76 2.45 1.99 1.67 1.68 1.76 1.67 1.62 1.70 1.72 1.58
1.99 1.96 1.75 1.55 1.48 1.42 1.34 1.27 1.21 1.21 1.20 1.23 1.29 1.30 1.28 1.29 1.30 1.29 1.43 1.62 1.81 1.89 2.02 2.26 2.60 2.90 3.07 3.12 2.74 2.14 1.78 1.71 1.79 1.75 1.63 1.70 1.88 1.81
1.77 1.59 1.45 1.36 1.30 1.26 1.21 1.18 1.17 1.10 1.11 1.20 1.26 1.26 1.23 1.26 1.30 1.33 1.38 1.52 1.66 1.79 1.93 2.05 2.34 2.73 2.95 3.11 3.13 2.50 2.04 1.85 1.90 2.06 1.92 1.70 1.75 1.84
1.43 1.41 1.36 1.31 1.31 1.33 1.28 1.23 1.18 1.14 1.16 1.17 1.19 1.20 1.23 1.30 1.32 1.29 1.32 1.47 1.58 1.68 1.83 1.97 2.24 2.56 2.80 2.76 2.90 2.86 2.57 2.16 1.99 2.18 2.15 1.92 1.85 1.98
1.31 1.32 1.31 1.32 1.35 1.35 1.30 1.25 1.23 1.17 1.12 1.13 1.11 1.10 1.14 1.24 1.26 1.20 1.26 1.40 1.51 1.61 1.75 1.88 2.07 2.29 2.45 2.52 2.56 2.60 2.74 2.71 2.27 2.15 2.15 2.14 2.09 2.09
1.27 1.30 1.30 1.32 1.36 1.37 1.33 1.27 1.25 1.19 1.12 1.10 1.06 1.05 1.06 1.15 1.21 1.20 1.26 1.35 1.39 1.48 1.62 1.75 1.86 2.07 2.32 2.55 2.54 2.42 2.58 2.75 2.69 2.41 2.20 2.08 2.15 2.29
1.37 1.37 1.36 1.34 1.33 1.34 1.32 1.26 1.22 1.17 1.11 1.09 1.06 1.05 1.07 1.13 1.13 1.19 1.24 1.26 1.31 1.37 1.49 1.70 1.87 2.03 2.26 2.42 2.49 2.37 2.34 2.47 2.51 2.50 2.62 2.30 1.88 1.72